Regional Weather Roundup
Issued by NWS

Home | Current Version | Previous Version | Text Only | Print | Product List | Glossary Off
Versions: 1 2 3 4 5 6 7 8 9 10 11 12 13 14 15 16 17 18 19 20 21 22 23 24 25 26 27 28 29 30 31 32 33 34 35 36 37 38 39 40 41 42 43 44 45 46 47 48 49 50

000
ASUS43 KLMK 271602
RWRKY
KENTUCKY REGIONAL WEATHER ROUNDUP
NATIONAL WEATHER SERVICE LOUISVILLE KY
1200 PM EDT MON APR 27 2015

NOTE "FAIR" INDICATES FEW OR NO CLOUDS BELOW 12,000 FEET
WITH NO SIGNIFICANT WEATHER AND/OR OBSTRUCTIONS TO VISIBILITY.

KYZ001>023-026-027-061>063-070>075-271700-
WESTERN AND SOUTH CENTRAL KENTUCKY

CITY           SKY/WX    TMP DP  RH WIND       PRES   REMARKS
PADUCAH        MOSUNNY   57  34  41 NE10      30.07F
HENDERSON      MOSUNNY   55  34  44 N6        30.09R
OWENSBORO      MOSUNNY   57  35  43 N7        30.08R
HOPKINSVILLE   SUNNY     58  42  54 N8        30.04S
BOWLING GREEN  SUNNY     59  38  45 SE3       30.04S
GLASGOW        NOT AVBL
$$

KYZ024-025-028>034-038-045-046-053-271700-
NORTH CENTRAL KENTUCKY

CITY           SKY/WX    TMP DP  RH WIND       PRES   REMARKS
LOUISVILLE/SDF SUNNY     61  34  36 N8        30.03R
LOUISVILLE/LOU SUNNY     60  35  39 N12       30.03R
FORT KNOX      SUNNY     58  33  38 VRB7      30.01S
$$

KYZ035>037-039>044-047>052-055>060-089>105-271700-
NORTHEAST KENTUCKY

CITY           SKY/WX    TMP DP  RH WIND       PRES   REMARKS
LEXINGTON      SUNNY     58  37  45 NW9       30.00R
COVINGTON      MOSUNNY   58  37  45 NW12      29.98R
FRANKFORT      PTSUNNY   57  33  40 N5        29.99R
$$

KYZ054-064>069-076>088-106>120-271700-
SOUTHEAST KENTUCKY

CITY           SKY/WX    TMP DP  RH WIND       PRES   REMARKS
JACKSON        SUNNY     54  30  40 VRB3      29.97R
LONDON         MOSUNNY   58  28  32 VRB5      30.00R
SOMERSET       NOT AVBL
MIDDLESBORO    SUNNY     56  35  43 N5        29.99S
MONTICELLO     SUNNY     58  35  42 CALM      30.04S
$$



USA.gov is the U.S. government's official web portal to all federal, state and local government web resources and services.